Regional Weather Roundup
Issued by NWS Sterling, VA

Home | Current Version | Previous Version | Text Only | Print | Product List | Glossary On
Versions: 1 2 3 4 5 6 7 8 9 10 11 12 13 14 15 16 17 18 19 20 21 22 23 24 25 26 27 28 29 30 31 32 33 34 35 36 37 38 39 40 41 42 43 44 45 46 47 48 49 50
000
ASUS41 KLWX 250710
RWRLWX

REGIONAL WEATHER ROUNDUP
NATIONAL WEATHER SERVICE BALTIMORE MD/WASHINGTON DC
300 AM EDT WED MAY 25 2016

Note: "FAIR" indicates few or no clouds below 12,000 feet
with no significant weather and/or obstructions to visibility.
 TC=TEMPERATURE CELSIUS

 * =Non NWS site. Station does not report precipitation (e.g. rain,
    snow, etc.), thunder, or fog.

DCZ001-MDZ009-015-VAZ040>042-051-053>054-250800-
WASHINGTON METRO

CITY           SKY/WX    TMP DP  RH WIND       PRES   REMARKS
WASHINGTON NAT FAIR      63  57  81 S6        30.09R
DULLES         FAIR      55  53  93 CALM      30.09R
ANDREWS AFB    CLEAR     63  51  66 W10       30.07R
FT BELVOIR     FAIR      55  53  95 CALM      30.09R
QUANTICO       FAIR      60  56  86 W7        30.10R
COLLEGE PARK*  FAIR      55  52  88 CALM      30.07S
LEESBURG*      FAIR      61  55  82 CALM      30.10R
MANASSAS*      FAIR      55  55 100 CALM      30.10R

$$

MDZ006>007-011-014-250800-
BALTIMORE METRO

CITY           SKY/WX    TMP DP  RH WIND       PRES   REMARKS
BWI AIRPORT    PTCLDY    61  50  67 W7        30.06R
MD SCIENCE CTR   N/A     70  47  43 MISG      30.05R
MARTIN STATE   CLEAR     66  52  59 W6        30.05S
ANNAPOLIS      PTCLDY    65  50  58 W5        30.05S
FORT MEADE*    PTCLDY    52  52 100 CALM      30.09R

$$

MDZ012-015-019>023-250800-
MARYLAND EASTERN SHORE

CITY           SKY/WX    TMP DP  RH WIND       PRES   REMARKS
OCEAN CITY     CLEAR     66  55  67 W7        30.06R
SALISBURY      CLEAR     61  54  77 CALM      30.06S
BAY BRIDGE AP* PTCLDY    66  52  59 W6        30.05S
CAMBRIDGE*       N/A     55  54  94 CALM      30.06S
EASTON*        CLEAR     62  59  91 CALM      30.10R

$$

MDZ017>025-250800-
SOUTHERN MARYLAND

CITY           SKY/WX    TMP DP  RH WIND       PRES   REMARKS
PATUXENT RIVER CLEAR     64  54  69 W3        30.07R
ST INIGOES     CLEAR     58  57  97 CALM      30.07R
LEONARDTOWN*   CLEAR     61  54  77 W5        30.09S

$$

MDZ003>005-250800-
NORTH CENTRAL MARYLAND

CITY           SKY/WX    TMP DP  RH WIND       PRES   REMARKS
FREDERICK*     CLEAR     55  55 100 S5        30.11R
HAGERSTOWN APT CLEAR     60  50  69 E7        30.10R
WESTMINSTER*   CLEAR     66  63  88 NW3       30.09R

$$

MDZ501>502-250800-
WESTERN MARYLAND

CITY           SKY/WX    TMP DP  RH WIND       PRES   REMARKS
OAKLAND*       NOT AVBL
CUMBERLAND*    CLEAR     54  54 100 CALM      30.16S

$$

VAZ025>031-250800-
SHENANDOAH VALLEY

CITY           SKY/WX    TMP DP  RH WIND       PRES   REMARKS
WINCHESTER*    FAIR      61  50  67 SW5       30.11S
FRONT ROYAL*   FAIR      57  52  82 S6        30.11S
LURAY*         FAIR      52  52 100 CALM      30.14S
NEW MARKET*    FAIR      53  52  95 W3        30.14F
STAUNTON*      FAIR      52  50  92 CALM      30.18S
WAYNESBORO*    FAIR      52  48  87 S5        30.17R

$$

WVZ021-048>050-054>055-250800-
EASTERN WEST VIRGINIA PANHANDLE

CITY           SKY/WX    TMP DP  RH WIND       PRES   REMARKS
MARTINSBURG    FAIR      62  50  64 CALM      30.09S
PETERSBURG*    FAIR      51  51  98 CALM      30.17R FOG

$$

VAZ036>039-050-250800-
CENTRAL FOOTHILLS

CITY           SKY/WX    TMP DP  RH WIND       PRES   REMARKS
CHARLOTTESVILL FAIR      61  51  70 W3        30.13R
CULPEPER*      FAIR      55  55  99 CALM      30.12R
ORANGE*        FAIR      57  55  94 CALM      30.13R
GORDONSVILLE*  FAIR      56  54  93 W8        30.11R
WARRENTON*     FAIR      55  51  85 CALM      30.10R

$$

VAZ055>057-250800-
NORTH AND CENTRAL PIEDMONT

CITY           SKY/WX    TMP DP  RH WIND       PRES   REMARKS
FREDERICKSBRG* FAIR      57  57 100 CALM      30.09R
STAFFORD*      FAIR      54  52  95 NW5       30.13S

$$

NCZ024-NYZ072-PAZ021-071-VAZ022-071-250800-
OTHER REGIONAL OBSERVATIONS

CITY           SKY/WX    TMP DP  RH WIND       PRES   REMARKS
NEW YORK CITY  CLEAR     63  50  62 W3        30.03S
PHILADELPHIA   CLEAR     62  53  72 CALM      30.04R
PITTSBURGH     CLEAR     63  48  58 CALM      30.10S
ROANOKE        FAIR      57  52  83 CALM      30.19R
RICHMOND       FAIR      63  55  75 SW3       30.10R
RALEIGH        PTCLDY    59  56  89 CALM      30.16R

$$

ANZ530>537-250800-
MARINE OBSERVATIONS

STATION/POSITION TIME  TEMP    WIND        PRES
                       AIR SEA DIR/SP/G
                 (UTC) (F)     (DEG/KT/KT) (MB)
THOMAS PT LIGHT  0700   69 63  280/ 10/ 10 1019.0R
BALT KEY BRIDGE  0600   67     230/  6/  7 1017.2R
COVE POINT       0600   69     270/ 12/ 13 1018.4S
LEWISETTA        0600   68 66  250/  6/  7 1018.0S
SOLOMONS ISLAND  0600   62 63  320/  2/  3   N/A
PINEY POINT      0600          290/  5/  6   N/A

$$




USA.gov is the U.S. government's official web portal to all federal, state and local government web resources and services.